QPF
0.00 0.02 0.03 0.06 0.00 0.00 0.00 0.00 0.00 0.00 0.00 0.00 0.00 0.00 0.00 0.00 0.00 0.00 0.00 0.00 0.00 0.00 0.00 0.00 0.01 0.01 0.00 0.02 0.00 0.00 0.00 0.00 0.00 0.00 0.00 0.00 0.00 0.00 0.00 0.00 0.00 0.00 0.00 0.00 0.01 0.00 0.00 0.00 0.01
0.04 0.14 0.15 0.08 0.00 0.00 0.00 0.00 0.00 0.00 0.00 0.00 0.00 0.00 0.00 0.00 0.00 0.00 0.00 0.00 0.00 0.00 0.00 0.00 0.00 0.00 0.00 0.00 0.00 0.00 0.00 0.00 0.00 0.00 0.02 0.01 0.00 0.00 0.00 0.00 0.00 0.01 0.01 0.01 0.01 0.00 0.00 0.00 0.00
0.17 0.16 0.03 0.06 0.00 0.00 0.00 0.00 0.00 0.00 0.00 0.00 0.00 0.00 0.00 0.00 0.00 0.00 0.00 0.00 0.00 0.00 0.00 0.00 0.00 0.00 0.00 0.00 0.00 0.00 0.00 0.00 0.00 0.00 0.00 0.01 0.00 0.00 0.00 0.01 0.04 0.04 0.04 0.01 0.00 0.00 0.00 0.00 0.01
0.20 0.05 0.01 0.02 0.00 0.00 0.00 0.00 0.00 0.00 0.00 0.00 0.00 0.00 0.00 0.00 0.00 0.00 0.00 0.00 0.00 0.00 0.00 0.00 0.00 0.00 0.00 0.00 0.00 0.00 0.00 0.00 0.00 0.00 0.00 0.00 0.00 0.01 0.01 0.02 0.05 0.03 0.03 0.12 0.01 0.00 0.00 0.00 0.01
0.13 0.03 0.00 0.00 0.00 0.00 0.00 0.00 0.00 0.00 0.00 0.00 0.00 0.00 0.00 0.00 0.00 0.00 0.00 0.00 0.00 0.00 0.00 0.00 0.00 0.00 0.00 0.00 0.00 0.00 0.00 0.00 0.00 0.00 0.00 0.00 0.00 0.02 0.01 0.04 0.06 0.02 0.01 0.01 0.00 0.00 0.00 0.00 0.00
0.03 0.00 0.00 0.00 0.00 0.00 0.00 0.00 0.00 0.00 0.00 0.00 0.00 0.00 0.00 0.00 0.00 0.00 0.00 0.00 0.00 0.00 0.00 0.00 0.00 0.00 0.00 0.00 0.00 0.00 0.00 0.00 0.00 0.00 0.00 0.00 0.00 0.01 0.02 0.03 0.02 0.00 0.00 0.00 0.00 0.00 0.00 0.00 0.00
0.00 0.00 0.00 0.00 0.00 0.00 0.00 0.00 0.00 0.00 0.00 0.00 0.00 0.00 0.00 0.00 0.00 0.00 0.00 0.00 0.00 0.00 0.00 0.00 0.00 0.00 0.00 0.00 0.00 0.00 0.00 0.00 0.00 0.00 0.00 0.00 0.00 0.00 0.02 0.03 0.01 0.00 0.00 0.00 0.00 0.00 0.00 0.00 0.01
0.02 0.00 0.00 0.00 0.00 0.00 0.00 0.00 0.00 0.00 0.00 0.00 0.00 0.00 0.00 0.00 0.00 0.00 0.03 0.04 0.00 0.00 0.00 0.00 0.00 0.00 0.00 0.00 0.00 0.00 0.00 0.00 0.00 0.00 0.04 0.09 0.02 0.04 0.08 0.17 0.08 0.04 0.00 0.00 0.00 0.00 0.00 0.01 0.05
0.04 0.00 0.00 0.00 0.00 0.00 0.00 0.00 0.00 0.00 0.00 0.00 0.00 0.00 0.00 0.00 0.00 0.01 0.02 0.02 0.01 0.00 0.00 0.00 0.00 0.00 0.00 0.00 0.00 0.00 0.00 0.00 0.00 0.01 0.07 0.06 0.03 0.01 0.00 0.01 0.08 0.03 0.02 0.02 0.00 0.00 0.00 0.00 0.04
0.00 0.00 0.00 0.00 0.00 0.00 0.00 0.00 0.00 0.00 0.00 0.00 0.00 0.00 0.00 0.00 0.02 0.06 0.05 0.01 0.04 0.00 0.00 0.00 0.00 0.00 0.00 0.00 0.00 0.00 0.00 0.00 0.01 0.05 0.08 0.06 0.02 0.02 0.01 0.02 0.11 0.03 0.01 0.01 0.00 0.00 0.00 0.00 0.01
0.00 0.02 0.00 0.00 0.00 0.00 0.00 0.00 0.00 0.00 0.00 0.00 0.00 0.00 0.00 0.00 0.01 0.00 0.00 0.00 0.01 0.00 0.00 0.00 0.00 0.00 0.00 0.00 0.00 0.00 0.00 0.00 0.00 0.05 0.12 0.17 0.04 0.07 0.06 0.03 0.06 0.09 0.06 0.00 0.00 0.00 0.00 0.00 0.01
0.01 0.02 0.02 0.01 0.00 0.00 0.00 0.00 0.00 0.00 0.00 0.00 0.00 0.00 0.00 0.00 0.00 0.00 0.00 0.00 0.01 0.00 0.00 0.00 0.00 0.00 0.00 0.00 0.00 0.00 0.00 0.00 0.00 0.02 0.11 0.08 0.08 0.02 0.04 0.07 0.02 0.00 0.00 0.00 0.00 0.00 0.00 0.01 0.09
0.01 0.01 0.03 0.01 0.00 0.00 0.00 0.00 0.00 0.00 0.00 0.00 0.00 0.00 0.00 0.00 0.00 0.00 0.00 0.00 0.01 0.00 0.00 0.00 0.00 0.00 0.00 0.00 0.00 0.00 0.00 0.00 0.00 0.01 0.05 0.02 0.03 0.05 0.11 0.08 0.01 0.00 0.00 0.00 0.00 0.00 0.00 0.00 0.03
0.00 0.05 0.11 0.02 0.00 0.00 0.00 0.00 0.00 0.00 0.00 0.00 0.00 0.00 0.00 0.00 0.00 0.00 0.00 0.00 0.01 0.00 0.00 0.00 0.00 0.00 0.00 0.00 0.00 0.00 0.00 0.00 0.00 0.01 0.01 0.00 0.04 0.07 0.11 0.05 0.00 0.00 0.00 0.00 0.00 0.00 0.00 0.00 0.00
0.02 0.01 0.04 0.02 0.02 0.00 0.00 0.00 0.00 0.00 0.00 0.00 0.00 0.00 0.00 0.00 0.00 0.00 0.00 0.00 0.00 0.00 0.00 0.00 0.00 0.00 0.00 0.00 0.00 0.00 0.00 0.00 0.00 0.00 0.00 0.02 0.04 0.03 0.12 0.09 0.01 0.00 0.00 0.00 0.00 0.00 0.00 0.00 0.00
0.07 0.05 0.06 0.01 0.02 0.00 0.00 0.00 0.00 0.00 0.00 0.00 0.00 0.00 0.00 0.00 0.00 0.00 0.00 0.00 0.00 0.00 0.00 0.00 0.00 0.00 0.00 0.00 0.00 0.00 0.00 0.00 0.00 0.00 0.00 0.02 0.03 0.04 0.13 0.13 0.08 0.03 0.00 0.00 0.00 0.00 0.00 0.00 0.00
0.01 0.01 0.06 0.09 0.03 0.00 0.00 0.00 0.00 0.00 0.00 0.00 0.00 0.00 0.00 0.00 0.00 0.01 0.02 0.00 0.00 0.00 0.00 0.00 0.00 0.00 0.00 0.00 0.00 0.00 0.00 0.00 0.00 0.02 0.00 0.02 0.02 0.01 0.07 0.10 0.08 0.04 0.01 0.00 0.00 0.00 0.00 0.00 0.00
0.00 0.00 0.01 0.04 0.05 0.01 0.00 0.00 0.00 0.00 0.00 0.00 0.00 0.00 0.00 0.00 0.00 0.00 0.00 0.00 0.00 0.00 0.00 0.00 0.00 0.00 0.00 0.00 0.00 0.00 0.00 0.00 0.00 0.02 0.02 0.01 0.01 0.01 0.03 0.04 0.02 0.02 0.04 0.00 0.00 0.00 0.00 0.03 0.00
0.00 0.00 0.00 0.02 0.06 0.02 0.00 0.00 0.00 0.00 0.00 0.00 0.00 0.00 0.00 0.00 0.00 0.00 0.00 0.00 0.00 0.00 0.00 0.00 0.00 0.00 0.00 0.00 0.00 0.00 0.00 0.00 0.00 0.00 0.00 0.00 0.00 0.01 0.02 0.00 0.00 0.00 0.01 0.05 0.02 0.04 0.00 0.00 0.00
0.00 0.00 0.01 0.05 0.06 0.01 0.01 0.00 0.00 0.00 0.00 0.00 0.01 0.01 0.00 0.00 0.00 0.00 0.00 0.00 0.00 0.00 0.00 0.00 0.00 0.00 0.00 0.00 0.00 0.00 0.00 0.00 0.00 0.00 0.00 0.00 0.01 0.01 0.00 0.00 0.00 0.00 0.00 0.00 0.00 0.00 0.01 0.01 0.00
0.00 0.00 0.02 0.04 0.01 0.01 0.01 0.04 0.02 0.00 0.00 0.00 0.00 0.00 0.01 0.00 0.00 0.00 0.00 0.00 0.00 0.00 0.00 0.00 0.00 0.00 0.00 0.00 0.00 0.00 0.00 0.00 0.00 0.00 0.00 0.00 0.01 0.02 0.00 0.00 0.00 0.00 0.01 0.05 0.13 0.04 0.04 0.02 0.03
0.00 0.00 0.00 0.03 0.03 0.01 0.00 0.06 0.05 0.01 0.00 0.00 0.00 0.00 0.00 0.06 0.01 0.00 0.00 0.00 0.00 0.00 0.00 0.00 0.00 0.00 0.00 0.00 0.00 0.00 0.00 0.00 0.00 0.00 0.00 0.00 0.01 0.01 0.00 0.00 0.00 0.00 0.00 0.00 0.00 0.00 0.05 0.09 0.04
0.00 0.00 0.00 0.01 0.00 0.00 0.00 0.00 0.01 0.02 0.00 0.00 0.00 0.00 0.00 0.00 0.00 0.00 0.00 0.00 0.00 0.00 0.00 0.00 0.00 0.00 0.00 0.00 0.00 0.00 0.00 0.00 0.00 0.00 0.00 0.02 0.05 0.00 0.00 0.00 0.00 0.00 0.00 0.00 0.00 0.03 0.02 0.02 0.01
0.00 0.00 0.00 0.00 0.00 0.00 0.00 0.00 0.00 0.00 0.00 0.00 0.01 0.01 0.00 0.00 0.00 0.00 0.00 0.00 0.00 0.00 0.00 0.00 0.00 0.00 0.00 0.00 0.00 0.00 0.00 0.00 0.00 0.00 0.00 0.00 0.00 0.00 0.00 0.00 0.00 0.00 0.00 0.00 0.00 0.00 0.00 0.00 0.00
0.00 0.00 0.00 0.00 0.00 0.00 0.00 0.00 0.02 0.01 0.01 0.01 0.02 0.02 0.00 0.01 0.01 0.02 0.00 0.00 0.00 0.00 0.00 0.00 0.00 0.00 0.00 0.00 0.00 0.00 0.00 0.00 0.00 0.00 0.00 0.00 0.01 0.00 0.00 0.00 0.00 0.00 0.00 0.00 0.00 0.00 0.00 0.03 0.06
0.00 0.00 0.00 0.00 0.00 0.00 0.00 0.01 0.01 0.00 0.00 0.01 0.04 0.03 0.00 0.00 0.00 0.00 0.00 0.00 0.00 0.00 0.00 0.00 0.00 0.00 0.00 0.00 0.00 0.00 0.00 0.00 0.00 0.00 0.00 0.00 0.00 0.00 0.00 0.00 0.00 0.00 0.00 0.00 0.00 0.00 0.00 0.00 0.03
0.00 0.00 0.00 0.00 0.00 0.00 0.00 0.00 0.03 0.00 0.00 0.00 0.00 0.06 0.03 0.00 0.01 0.01 0.00 0.00 0.00 0.00 0.00 0.00 0.00 0.00 0.00 0.00 0.00 0.00 0.00 0.00 0.00 0.00 0.00 0.00 0.00 0.00 0.00 0.00 0.00 0.00 0.00 0.00 0.00 0.00 0.00 0.00 0.00
0.00 0.00 0.00 0.00 0.00 0.00 0.00 0.00 0.02 0.00 0.00 0.00 0.00 0.00 0.02 0.00 0.01 0.01 0.01 0.00 0.00 0.00 0.00 0.00 0.00 0.00 0.00 0.00 0.00 0.00 0.00 0.00 0.00 0.00 0.00 0.00 0.00 0.00 0.00 0.00 0.00 0.00 0.00 0.00 0.00 0.00 0.00 0.00 0.00
0.00 0.00 0.00 0.00 0.00 0.00 0.00 0.00 0.00 0.00 0.00 0.00 0.00 0.00 0.00 0.01 0.00 0.00 0.01 0.00 0.00 0.01 0.00 0.00 0.00 0.00 0.00 0.00 0.00 0.00 0.00 0.00 0.00 0.00 0.00 0.00 0.00 0.00 0.00 0.00 0.00 0.00 0.00 0.00 0.00 0.01 0.01 0.00 0.01
0.00 0.00 0.00 0.00 0.00 0.01 0.00 0.00 0.00 0.00 0.00 0.00 0.00 0.00 0.01 0.01 0.02 0.01 0.03 0.02 0.01 0.01 0.00 0.00 0.00 0.00 0.00 0.00 0.00 0.00 0.00 0.00 0.00 0.00 0.00 0.00 0.00 0.00 0.00 0.00 0.00 0.00 0.00 0.00 0.04 0.05 0.03 0.01 0.00
MSLP
1011.13 1011.24 1011.54 1011.68 1012.00 1011.39 1011.43 1011.36 1010.76 1010.95 1011.46 1011.39 1011.93 1012.24 1013.45 1014.49 1015.03 1016.13 1015.95 1015.95 1015.98 1016.13 1016.24 1016.42 1016.47 1016.63 1016.86 1016.89 1016.95 1016.99 1016.99 1017.00 1017.12 1017.10 1017.12 1017.30 1017.41 1017.48 1017.50 1017.60 1017.53 1017.52 1017.56 1017.66 1017.89 1018.01 1017.90 1017.89 1017.92
1011.35 1011.60 1011.59 1011.23 1011.38 1011.33 1011.11 1010.57 1010.49 1010.38 1010.66 1011.44 1011.89 1012.40 1013.31 1014.77 1014.98 1015.89 1016.13 1016.07 1015.85 1016.02 1016.22 1016.42 1016.54 1016.55 1016.85 1017.01 1017.09 1017.11 1017.23 1017.22 1017.24 1017.30 1017.38 1017.46 1017.60 1017.63 1017.71 1017.74 1017.88 1017.85 1017.88 1017.70 1017.86 1018.13 1018.21 1018.18 1018.20
1011.35 1011.77 1011.61 1010.95 1010.69 1010.20 1010.14 1010.01 1010.16 1010.43 1010.40 1010.86 1011.89 1012.83 1014.01 1015.29 1015.55 1015.88 1015.80 1016.00 1016.00 1016.31 1016.25 1016.44 1016.59 1016.67 1016.85 1017.08 1017.27 1017.37 1017.46 1017.33 1017.40 1017.52 1017.60 1017.63 1017.81 1017.92 1017.93 1018.00 1018.07 1017.98 1017.96 1017.99 1018.00 1018.23 1018.28 1018.40 1018.48
1011.70 1011.57 1011.32 1011.06 1010.02 1009.04 1008.76 1009.45 1009.43 1010.44 1010.78 1011.24 1012.25 1013.72 1014.71 1015.09 1015.54 1015.67 1015.91 1015.76 1016.35 1016.49 1016.60 1016.55 1016.65 1016.86 1017.04 1017.15 1017.43 1017.64 1017.58 1017.52 1017.66 1017.59 1017.83 1017.94 1018.03 1018.14 1018.16 1018.01 1018.09 1018.28 1018.17 1018.25 1018.36 1018.40 1018.48 1018.53 1018.58
1011.97 1011.84 1011.27 1010.59 1009.47 1008.44 1008.13 1008.41 1008.90 1009.55 1010.73 1011.82 1012.35 1014.34 1015.25 1015.53 1015.51 1015.75 1015.91 1016.03 1016.43 1016.88 1016.86 1016.91 1016.90 1016.99 1017.25 1017.47 1017.63 1017.71 1017.69 1017.76 1017.92 1018.00 1018.18 1018.25 1018.19 1018.30 1018.37 1018.50 1018.29 1018.31 1018.43 1018.47 1018.53 1018.60 1018.66 1018.75 1018.79
1012.25 1012.32 1011.50 1010.45 1009.00 1008.10 1007.82 1007.98 1008.69 1009.62 1010.99 1012.32 1013.44 1014.36 1015.87 1015.80 1015.87 1016.03 1016.01 1016.27 1016.45 1016.86 1017.07 1017.06 1017.02 1017.07 1017.36 1017.55 1017.81 1017.73 1017.80 1017.79 1018.01 1018.19 1018.11 1018.06 1018.04 1018.18 1018.51 1018.64 1018.56 1018.57 1018.46 1018.62 1018.69 1018.71 1018.80 1018.86 1018.80
1011.97 1012.45 1011.73 1010.32 1008.99 1008.28 1007.69 1007.92 1008.65 1009.84 1011.01 1012.27 1013.03 1014.73 1015.93 1015.97 1016.00 1015.97 1016.17 1016.38 1016.60 1016.79 1017.07 1017.16 1017.18 1017.21 1017.40 1017.55 1017.83 1017.77 1017.74 1017.86 1017.96 1018.12 1018.22 1018.26 1018.29 1018.29 1018.28 1018.61 1018.57 1018.62 1018.60 1018.66 1018.85 1018.86 1018.91 1018.93 1018.94
1012.16 1012.32 1011.23 1009.77 1008.83 1008.28 1007.73 1007.99 1008.68 1009.60 1011.24 1012.14 1012.80 1014.47 1015.54 1015.70 1016.01 1016.26 1016.41 1016.51 1016.93 1017.16 1017.25 1017.43 1017.20 1017.28 1017.58 1017.52 1017.72 1017.66 1017.68 1017.81 1017.79 1018.02 1018.10 1018.06 1018.17 1018.41 1018.63 1018.61 1018.57 1018.52 1018.64 1018.67 1018.87 1018.92 1018.94 1019.00 1019.10
1011.64 1012.13 1011.29 1009.68 1008.71 1008.12 1007.84 1008.38 1009.54 1010.10 1011.02 1012.02 1012.58 1013.45 1014.81 1015.59 1016.09 1016.38 1016.74 1016.87 1017.15 1017.44 1017.58 1017.49 1017.35 1017.39 1017.44 1017.47 1017.60 1017.44 1017.66 1017.75 1017.85 1017.94 1018.00 1018.31 1018.33 1018.70 1018.83 1018.93 1018.87 1018.84 1018.67 1018.67 1018.82 1018.91 1018.94 1019.07 1019.30
1012.78 1012.71 1011.03 1009.27 1008.08 1007.76 1008.06 1008.56 1009.40 1010.75 1011.60 1013.01 1013.47 1014.31 1015.09 1015.72 1016.19 1016.36 1016.56 1016.67 1017.13 1017.38 1017.57 1017.38 1017.21 1017.36 1017.50 1017.39 1017.58 1017.77 1017.92 1017.79 1017.93 1017.85 1017.98 1018.24 1018.52 1018.75 1018.73 1018.86 1018.97 1018.90 1018.83 1018.74 1018.97 1019.09 1019.05 1019.17 1019.54
1013.05 1012.62 1010.15 1008.99 1008.24 1007.91 1008.22 1008.91 1009.51 1011.02 1012.50 1012.66 1013.41 1014.47 1015.24 1015.90 1016.39 1016.24 1016.22 1016.28 1016.56 1016.79 1017.10 1017.29 1017.25 1017.30 1017.38 1017.39 1017.63 1017.87 1017.95 1017.81 1017.58 1017.89 1018.01 1018.06 1018.57 1018.57 1018.66 1018.82 1019.04 1019.06 1019.02 1019.11 1019.27 1019.46 1019.42 1019.35 1019.50
1013.22 1012.13 1011.27 1009.85 1008.76 1008.17 1008.49 1009.23 1010.40 1011.12 1012.19 1013.33 1013.88 1014.43 1015.24 1015.93 1016.22 1016.12 1016.09 1016.10 1015.86 1016.59 1016.71 1016.93 1017.09 1017.32 1017.30 1017.47 1017.56 1017.56 1017.53 1017.36 1017.26 1017.93 1018.31 1018.25 1018.38 1018.45 1018.55 1018.67 1018.73 1018.99 1019.13 1019.25 1019.52 1019.61 1019.60 1019.59 1019.63
1013.13 1012.55 1011.58 1010.89 1008.57 1008.94 1009.27 1010.03 1010.61 1012.00 1013.05 1013.90 1014.51 1015.03 1015.46 1015.75 1016.01 1015.76 1015.70 1015.37 1016.11 1016.40 1016.50 1016.79 1016.85 1016.95 1017.04 1017.17 1017.11 1017.04 1016.99 1017.18 1017.06 1017.40 1017.70 1017.86 1018.06 1017.93 1018.13 1018.40 1018.52 1018.72 1019.08 1019.17 1019.40 1019.58 1019.61 1019.51 1019.43
1012.85 1012.99 1012.24 1011.33 1011.03 1009.95 1010.05 1011.07 1011.17 1013.31 1013.72 1014.30 1014.75 1015.12 1015.54 1015.37 1015.15 1015.40 1015.37 1015.49 1015.79 1016.03 1016.15 1016.49 1016.73 1016.73 1016.85 1016.81 1016.63 1016.79 1016.74 1016.79 1016.87 1017.54 1017.43 1017.60 1017.79 1017.88 1018.02 1018.18 1018.37 1018.54 1018.91 1019.12 1019.37 1019.56 1019.59 1019.40 1019.14
1012.76 1013.28 1012.75 1011.67 1011.46 1011.25 1010.93 1012.08 1012.25 1013.21 1013.88 1014.52 1014.93 1015.11 1015.31 1015.01 1014.80 1014.85 1015.00 1015.15 1015.43 1015.71 1015.91 1016.30 1016.49 1016.45 1016.77 1016.69 1016.40 1016.61 1016.78 1016.86 1016.74 1017.30 1017.50 1017.61 1017.58 1017.79 1017.91 1018.22 1018.28 1018.46 1018.73 1018.96 1019.17 1019.59 1019.58 1019.43 1019.02
1013.57 1013.93 1013.65 1012.37 1012.39 1011.90 1011.61 1012.96 1012.90 1013.29 1013.74 1014.45 1014.79 1014.85 1014.87 1014.86 1014.53 1014.50 1014.55 1014.78 1015.01 1015.31 1015.70 1016.12 1016.29 1016.37 1016.52 1016.50 1016.18 1016.28 1016.59 1016.61 1016.63 1016.75 1017.03 1017.13 1017.21 1017.07 1017.74 1018.22 1018.13 1018.35 1018.76 1018.81 1019.08 1019.57 1019.72 1019.52 1019.28
1013.88 1014.08 1014.23 1013.30 1012.59 1012.37 1012.27 1012.98 1012.92 1013.12 1013.53 1014.12 1014.52 1014.59 1014.55 1014.37 1014.29 1014.16 1014.07 1014.40 1014.68 1014.90 1015.40 1015.92 1016.20 1016.06 1016.25 1016.27 1016.33 1016.27 1016.38 1016.45 1016.64 1016.65 1016.53 1016.53 1016.66 1016.82 1017.34 1017.66 1017.63 1017.87 1018.50 1018.79 1019.08 1019.37 1019.59 1019.59 1019.30
1012.77 1013.04 1013.42 1013.69 1012.96 1012.84 1012.71 1012.40 1012.53 1012.70 1013.14 1013.40 1013.99 1014.11 1013.98 1013.71 1013.40 1013.32 1013.42 1014.00 1014.22 1014.44 1014.93 1015.52 1015.89 1015.68 1015.97 1016.26 1016.50 1016.37 1016.57 1016.57 1016.75 1016.48 1016.32 1016.40 1016.56 1016.64 1016.95 1017.10 1017.38 1017.58 1018.26 1018.75 1019.09 1019.30 1019.36 1019.56 1019.45
1011.26 1012.37 1013.57 1013.64 1013.23 1013.53 1013.12 1012.51 1012.71 1012.70 1012.84 1012.92 1013.23 1013.56 1013.47 1013.15 1012.45 1012.64 1013.01 1013.35 1013.88 1014.40 1014.96 1015.40 1015.61 1015.36 1015.86 1016.33 1016.74 1016.85 1016.70 1016.51 1016.63 1016.41 1016.14 1016.19 1016.52 1016.63 1016.93 1016.83 1017.16 1017.34 1017.83 1018.37 1018.73 1019.01 1019.26 1019.39 1019.23
1011.46 1012.41 1013.86 1013.90 1013.29 1013.51 1012.65 1013.02 1013.01 1012.87 1012.36 1012.15 1012.42 1012.76 1012.65 1012.50 1012.29 1012.37 1012.77 1013.10 1013.36 1013.96 1014.47 1015.06 1015.03 1015.07 1015.50 1015.93 1016.12 1016.12 1015.99 1016.11 1015.99 1015.98 1015.93 1016.02 1016.11 1016.05 1016.29 1016.51 1016.95 1017.26 1017.59 1018.00 1018.35 1018.44 1019.03 1019.16 1018.80
1010.83 1011.60 1012.64 1013.34 1013.40 1013.18 1012.51 1013.03 1012.70 1012.34 1012.10 1011.90 1011.62 1011.69 1012.06 1011.87 1011.98 1011.87 1012.40 1012.61 1013.25 1013.75 1014.08 1014.51 1014.72 1014.62 1015.00 1015.48 1015.73 1015.75 1015.92 1016.06 1016.20 1016.24 1016.18 1015.92 1015.69 1015.82 1015.91 1016.22 1016.58 1016.95 1017.15 1017.62 1017.90 1018.01 1018.65 1018.86 1018.52
1009.40 1009.25 1011.39 1012.54 1013.18 1014.30 1014.27 1014.13 1012.42 1011.87 1011.28 1011.21 1010.99 1011.04 1011.32 1011.48 1011.48 1011.75 1011.88 1012.55 1012.90 1013.08 1013.57 1013.99 1014.37 1014.60 1014.77 1014.98 1015.21 1015.43 1015.67 1016.25 1016.17 1015.87 1015.84 1015.60 1015.15 1015.55 1015.88 1015.95 1016.33 1016.58 1016.79 1017.25 1017.48 1017.55 1017.92 1018.18 1018.44
1009.14 1009.41 1009.85 1011.32 1012.92 1014.13 1014.94 1014.99 1012.35 1011.38 1011.09 1010.49 1010.18 1010.42 1010.64 1010.62 1010.68 1011.25 1011.24 1011.55 1011.91 1012.67 1012.95 1013.32 1013.80 1014.25 1014.54 1014.92 1014.95 1015.20 1015.62 1015.85 1015.80 1015.89 1015.72 1015.77 1015.41 1015.61 1015.74 1016.06 1016.20 1016.53 1016.72 1016.81 1017.23 1017.32 1017.52 1017.61 1017.99
1008.78 1010.41 1011.49 1012.17 1013.63 1014.93 1015.42 1014.60 1012.76 1011.80 1010.53 1009.93 1009.83 1010.17 1010.51 1009.85 1010.09 1010.60 1010.86 1011.26 1011.70 1012.39 1012.72 1013.04 1013.53 1013.89 1014.07 1014.57 1014.81 1014.88 1015.12 1015.57 1015.76 1015.98 1016.09 1015.90 1015.74 1015.74 1015.82 1015.69 1015.92 1016.09 1016.28 1016.45 1016.65 1016.95 1017.13 1017.32 1017.42
1008.50 1009.65 1011.45 1012.83 1013.72 1014.81 1014.79 1014.07 1012.34 1010.67 1009.51 1009.38 1009.89 1009.93 1010.28 1010.41 1010.63 1010.68 1011.19 1011.45 1011.68 1012.00 1012.34 1012.97 1013.25 1013.56 1013.77 1014.22 1014.67 1014.70 1014.74 1015.23 1015.40 1015.57 1015.65 1015.93 1015.96 1015.70 1015.44 1015.31 1015.51 1015.66 1015.73 1015.84 1016.02 1016.48 1016.53 1016.76 1016.77
1007.51 1008.68 1010.85 1013.78 1014.72 1014.94 1014.17 1013.91 1011.35 1009.98 1008.20 1008.61 1008.56 1008.64 1009.38 1010.44 1011.01 1010.55 1011.23 1011.62 1011.80 1011.46 1011.84 1012.30 1012.81 1013.31 1013.56 1013.74 1014.02 1014.32 1014.52 1014.87 1014.93 1015.15 1015.23 1015.26 1015.43 1014.98 1014.86 1014.99 1015.00 1015.36 1015.15 1015.21 1015.32 1015.56 1015.81 1016.07 1016.27
1006.28 1008.07 1009.82 1013.19 1015.18 1015.03 1014.54 1013.63 1011.30 1010.32 1009.42 1009.59 1009.32 1008.87 1009.37 1010.15 1010.95 1010.19 1010.58 1011.55 1011.30 1011.20 1011.01 1011.50 1012.18 1012.67 1012.93 1013.05 1013.51 1013.93 1014.06 1014.38 1014.49 1014.69 1014.83 1014.71 1014.77 1014.65 1014.74 1014.91 1015.03 1015.05 1015.14 1015.19 1015.32 1015.59 1015.69 1015.82 1015.77
1005.07 1007.13 1009.57 1012.46 1014.79 1015.35 1014.46 1013.67 1012.62 1011.44 1010.57 1010.45 1010.37 1009.99 1009.98 1010.52 1011.07 1011.43 1011.64 1011.44 1011.08 1010.59 1010.79 1010.97 1011.53 1011.87 1012.02 1012.51 1012.96 1013.44 1013.67 1013.88 1013.89 1014.12 1014.52 1014.42 1014.47 1014.61 1014.62 1014.72 1014.81 1014.85 1015.10 1015.24 1015.40 1015.39 1015.40 1015.65 1015.66
1005.63 1006.96 1008.43 1010.47 1012.21 1013.53 1014.00 1012.55 1010.79 1010.49 1010.48 1010.20 1010.27 1010.27 1010.43 1010.81 1011.16 1010.94 1011.13 1011.46 1011.10 1010.77 1010.68 1010.73 1011.16 1011.53 1011.84 1012.14 1012.41 1012.83 1013.22 1013.44 1013.64 1013.67 1013.89 1014.10 1014.20 1014.36 1014.49 1014.73 1014.92 1015.01 1015.05 1015.16 1015.15 1015.13 1015.10 1015.31 1015.31
1004.95 1005.98 1007.24 1009.48 1011.39 1012.09 1012.21 1011.12 1009.58 1009.00 1009.09 1009.47 1010.15 1010.35 1010.24 1011.01 1011.25 1011.30 1010.93 1010.64 1010.62 1010.53 1010.31 1010.65 1011.13 1011.10 1011.05 1011.23 1011.86 1012.34 1012.72 1013.05 1013.28 1013.44 1013.54 1013.79 1013.78 1013.88 1014.17 1014.36 1014.62 1014.74 1014.78 1014.80 1015.05 1015.20 1015.18 1015.29 1015.25
Thickness
5820 5818 5816 5806 5778 5778 5767 5769 5795 5782 5781 5799 5800 5793 5780 5774 5768 5752 5783 5785 5785 5783 5782 5782 5781 5780 5778 5779 5780 5780 5779 5778 5777 5776 5775 5772 5770 5767 5766 5764 5763 5763 5762 5762 5759 5757 5757 5755 5754
5819 5815 5810 5800 5771 5754 5762 5786 5783 5794 5797 5797 5796 5792 5781 5764 5782 5774 5776 5785 5786 5785 5783 5783 5781 5781 5779 5779 5780 5781 5779 5779 5779 5777 5774 5772 5769 5768 5766 5764 5761 5761 5761 5763 5762 5758 5756 5756 5755
5820 5813 5796 5786 5776 5764 5763 5787 5786 5793 5803 5799 5789 5792 5778 5763 5775 5777 5785 5785 5785 5784 5785 5784 5782 5781 5779 5779 5780 5779 5779 5781 5779 5776 5775 5772 5771 5769 5767 5764 5761 5761 5761 5762 5762 5758 5757 5756 5755
5811 5807 5802 5777 5775 5794 5790 5793 5798 5790 5795 5796 5786 5765 5774 5781 5776 5782 5783 5785 5783 5783 5783 5783 5783 5781 5779 5779 5779 5777 5779 5781 5779 5778 5775 5771 5770 5768 5768 5767 5765 5761 5761 5761 5760 5759 5757 5756 5756
5807 5795 5780 5780 5785 5800 5806 5807 5804 5798 5792 5785 5786 5758 5759 5774 5780 5780 5781 5782 5780 5779 5781 5780 5781 5781 5778 5777 5777 5777 5779 5779 5777 5775 5773 5770 5767 5766 5764 5762 5764 5764 5760 5759 5760 5759 5758 5756 5756
5782 5784 5772 5767 5788 5804 5809 5815 5806 5794 5785 5776 5768 5762 5754 5772 5775 5775 5778 5777 5778 5778 5777 5777 5780 5781 5779 5778 5777 5777 5779 5779 5777 5774 5774 5773 5770 5767 5762 5761 5761 5761 5763 5759 5759 5760 5758 5758 5758
5786 5772 5768 5780 5785 5791 5807 5820 5801 5791 5783 5772 5779 5752 5754 5763 5771 5774 5775 5776 5775 5776 5777 5777 5779 5780 5779 5778 5778 5777 5780 5780 5778 5776 5775 5773 5770 5767 5762 5760 5762 5761 5761 5760 5757 5759 5758 5758 5758
5794 5782 5778 5790 5783 5785 5813 5813 5814 5799 5779 5787 5781 5748 5744 5761 5769 5770 5771 5772 5772 5772 5773 5774 5779 5781 5780 5780 5778 5780 5781 5781 5780 5777 5776 5774 5769 5764 5761 5760 5760 5761 5760 5760 5759 5759 5760 5759 5759
5809 5771 5764 5783 5787 5795 5814 5802 5807 5805 5788 5783 5781 5769 5764 5765 5763 5763 5763 5764 5766 5767 5771 5774 5777 5780 5782 5781 5780 5782 5780 5780 5779 5777 5776 5772 5770 5763 5759 5757 5758 5758 5760 5761 5760 5760 5762 5761 5758
5781 5763 5779 5805 5813 5806 5807 5803 5801 5786 5776 5763 5763 5762 5761 5759 5756 5755 5756 5760 5760 5763 5769 5774 5777 5781 5784 5783 5781 5781 5779 5780 5780 5780 5780 5775 5769 5764 5761 5758 5757 5757 5760 5762 5760 5760 5761 5761 5758
5780 5766 5801 5811 5818 5820 5810 5806 5808 5781 5759 5766 5757 5754 5755 5751 5749 5756 5757 5761 5764 5767 5772 5776 5779 5782 5782 5782 5781 5781 5781 5783 5787 5784 5781 5777 5770 5768 5765 5760 5757 5758 5762 5762 5760 5759 5759 5760 5760
5769 5789 5792 5806 5817 5820 5810 5808 5789 5786 5773 5768 5764 5760 5755 5750 5747 5753 5760 5761 5759 5767 5775 5779 5780 5782 5783 5781 5781 5784 5787 5790 5791 5785 5781 5778 5773 5771 5769 5764 5765 5765 5764 5763 5759 5759 5759 5759 5759
5776 5780 5791 5798 5819 5817 5814 5795 5789 5776 5775 5769 5764 5757 5753 5752 5754 5760 5765 5770 5769 5771 5778 5780 5782 5783 5785 5784 5788 5791 5793 5792 5793 5790 5786 5782 5779 5778 5777 5773 5772 5769 5765 5764 5761 5761 5762 5762 5763
5787 5770 5781 5793 5789 5806 5797 5786 5788 5767 5772 5765 5760 5754 5755 5757 5763 5765 5769 5768 5773 5778 5783 5786 5784 5786 5787 5791 5795 5794 5795 5796 5796 5789 5788 5784 5782 5780 5779 5776 5775 5773 5768 5766 5764 5763 5763 5764 5765
5789 5772 5777 5789 5790 5789 5798 5771 5770 5773 5769 5761 5759 5759 5760 5764 5772 5770 5775 5775 5780 5781 5787 5789 5787 5789 5792 5797 5799 5798 5797 5797 5797 5789 5785 5782 5782 5780 5780 5777 5777 5775 5771 5769 5767 5762 5763 5765 5768
5770 5764 5746 5784 5782 5788 5786 5744 5774 5777 5768 5761 5760 5763 5768 5769 5777 5781 5785 5785 5787 5791 5792 5792 5793 5795 5795 5799 5802 5800 5797 5798 5796 5794 5791 5789 5787 5788 5784 5778 5778 5775 5770 5771 5769 5764 5762 5765 5767
5758 5740 5745 5757 5786 5783 5778 5756 5777 5783 5772 5765 5764 5766 5773 5775 5778 5786 5794 5796 5797 5799 5799 5795 5795 5798 5798 5799 5800 5801 5799 5800 5798 5797 5797 5796 5794 5791 5787 5785 5784 5780 5774 5770 5769 5766 5764 5764 5767
5763 5758 5764 5751 5775 5777 5769 5773 5781 5787 5776 5773 5771 5773 5777 5783 5789 5798 5801 5802 5804 5805 5805 5800 5797 5801 5802 5799 5799 5803 5801 5799 5797 5800 5800 5798 5796 5794 5790 5789 5786 5783 5778 5773 5769 5767 5768 5764 5765
5789 5770 5758 5766 5778 5766 5766 5780 5776 5784 5782 5779 5780 5779 5782 5788 5804 5808 5809 5810 5808 5805 5803 5800 5798 5804 5801 5798 5796 5797 5798 5801 5800 5800 5801 5801 5798 5794 5791 5793 5789 5787 5784 5777 5774 5771 5767 5765 5769
5785 5767 5744 5759 5777 5771 5771 5771 5777 5783 5785 5791 5789 5789 5795 5800 5806 5812 5812 5813 5812 5809 5807 5803 5805 5808 5806 5803 5805 5806 5807 5804 5805 5805 5806 5805 5802 5801 5800 5797 5791 5788 5786 5782 5779 5777 5768 5767 5772
5782 5774 5756 5758 5772 5776 5780 5763 5774 5786 5793 5797 5804 5804 5803 5806 5807 5814 5809 5812 5812 5809 5810 5808 5809 5814 5813 5810 5808 5810 5808 5806 5803 5803 5804 5806 5806 5804 5805 5801 5794 5792 5789 5784 5783 5781 5773 5767 5772
5786 5816 5791 5777 5764 5736 5765 5733 5771 5784 5792 5798 5806 5806 5808 5806 5813 5816 5816 5812 5812 5814 5816 5815 5813 5813 5813 5814 5812 5810 5805 5798 5804 5808 5807 5810 5812 5808 5804 5803 5797 5795 5791 5788 5785 5784 5778 5777 5771
5794 5816 5807 5792 5767 5756 5758 5734 5765 5786 5784 5793 5807 5810 5813 5818 5820 5819 5821 5823 5825 5821 5820 5821 5818 5816 5815 5812 5814 5812 5806 5807 5806 5806 5807 5807 5810 5807 5805 5802 5798 5796 5793 5791 5786 5784 5779 5781 5777
5815 5797 5793 5789 5765 5738 5739 5745 5755 5768 5787 5799 5808 5812 5812 5823 5826 5826 5829 5827 5826 5825 5824 5823 5820 5818 5817 5813 5813 5814 5811 5807 5805 5803 5803 5805 5805 5806 5803 5802 5799 5797 5797 5794 5792 5786 5782 5780 5781
5810 5786 5745 5748 5738 5745 5756 5754 5765 5797 5813 5812 5803 5806 5811 5817 5812 5818 5819 5820 5822 5824 5824 5822 5821 5817 5818 5815 5812 5814 5814 5810 5809 5806 5805 5803 5801 5803 5803 5804 5801 5799 5798 5796 5795 5791 5790 5786 5786
5807 5798 5757 5734 5739 5746 5768 5752 5778 5818 5835 5829 5826 5825 5820 5806 5808 5818 5815 5819 5821 5827 5828 5827 5823 5820 5820 5819 5816 5815 5815 5811 5811 5810 5809 5809 5807 5811 5811 5808 5804 5800 5802 5801 5799 5799 5796 5792 5788
5822 5795 5804 5753 5744 5749 5751 5767 5799 5819 5819 5816 5816 5820 5814 5805 5807 5811 5820 5817 5824 5829 5832 5832 5827 5826 5825 5824 5820 5816 5817 5814 5814 5813 5813 5814 5813 5814 5811 5807 5805 5804 5803 5801 5799 5796 5794 5793 5792
5839 5829 5786 5757 5721 5723 5750 5750 5753 5793 5799 5807 5804 5808 5811 5805 5801 5800 5808 5816 5827 5833 5835 5837 5834 5831 5831 5828 5824 5819 5817 5816 5817 5817 5814 5814 5814 5813 5810 5807 5805 5804 5800 5797 5794 5795 5794 5789 5789
5813 5808 5800 5784 5766 5741 5742 5754 5792 5796 5806 5806 5811 5812 5808 5801 5797 5806 5815 5817 5825 5829 5833 5836 5833 5831 5828 5827 5825 5821 5818 5817 5815 5817 5817 5814 5813 5811 5809 5804 5800 5797 5795 5793 5792 5790 5788 5783 5782
5835 5821 5812 5772 5765 5758 5760 5762 5829 5826 5823 5823 5810 5811 5813 5808 5809 5814 5818 5821 5826 5829 5832 5830 5830 5831 5833 5833 5827 5822 5819 5817 5815 5814 5815 5814 5811 5810 5805 5802 5798 5795 5794 5791 5785 5781 5779 5776 5775